Regional Weather Roundup
Issued by NWS Green Bay, WI

Home | Current Version | Previous Version | Graphics & Text | Print | Product List | Glossary Off
Versions: 1 2 3 4 5 6 7 8 9 10 11 12 13 14 15 16 17 18 19 20 21 22 23 24 25 26 27 28 29 30 31 32 33 34 35 36 37 38 39 40 41 42 43 44 45 46 47 48 49 50

000
ASUS43 KGRB 222211
RWRGRB

NORTH-CENTRAL AND NORTHEAST WISCONSIN REGIONAL WEATHER ROUNDUP
NATIONAL WEATHER SERVICE GREEN BAY WI
500 PM CDT TUE AUG 22 2017

WIZ005-009-010>012-018-019-222300-
NORTH CENTRAL WISCONSIN

CITY           SKY/WX    TMP DP  RH WIND       PRES   REMARKS
IRONWOOD       CLOUDY    65  52  62 W10G26    29.92R
MANITOWISH WTR CLOUDY    66  49  54 NW18G26   29.92S
ARBOR VITAE    PTSUNNY   65  50  57 NW15G23   29.92S
EAGLE RIVER    CLOUDY    63  51  66 NW7       29.91S
LAND O LAKES   PTSUNNY   64  49  58 W8        29.92R
RHINELANDER    LGT RAIN  64  50  60 W16G22    29.93S
PHILLIPS       CLOUDY    65  49  55 NW9G24    29.95R
ANTIGO         PTSUNNY   65  49  56 NW12G20   29.93R
TOMAHAWK         N/A     64  49  59 NW9       29.94S
MERRILL        NOT AVBL
$$

WIZ013-073-222300-
NORTHEAST WISCONSIN

CITY           SKY/WX    TMP DP  RH WIND       PRES   REMARKS
IRON MOUNTAIN  PTSUNNY   70  45  40 NW16G25   29.85S
MARINETTE      LGT RAIN  69  50  50 N10G26    29.87R
OCONTO         PTSUNNY   71  48  44 NW9       29.86S
$$

WIZ017-030-035>037-045-222300-
CENTRAL WISCONSIN

CITY           SKY/WX    TMP DP  RH WIND       PRES   REMARKS
MEDFORD        CLOUDY    67  47  47 W15G26    29.96R
WAUSAU         MOSUNNY   71  46  40 NW18G29   29.92S
MOSINEE        MOSUNNY   70  48  46 W17G29    29.94S
MARSHFIELD     MOSUNNY   71  49  45 NW16G23   29.95S
WISC RAPIDS    MOSUNNY   74  50  42 NW16G25   29.96F
STEVENS POINT  MOSUNNY   70  46  42 NW13G22   29.94S
WAUPACA        MOSUNNY   76  46  34 W14       29.93S
SHAWANO        PTSUNNY   73  47  40 NW9G20    29.89S
CLINTONVILLE   PTSUNNY   72  43  35 NW14      29.90S
WAUTOMA        MOSUNNY   74  48  39 NW18G26   29.95R
$$

WIZ038-039-048-051-222300-
FOX VALLEY

CITY           SKY/WX    TMP DP  RH WIND       PRES   REMARKS
NWS GREEN BAY  MOSUNNY   73  51  46 NW16G23   29.89S
APPLETON       PTSUNNY   73  43  33 NW15G25   29.91R
OSHKOSH        MOSUNNY   73  51  46 NW13      29.92R
FOND DU LAC    MOSUNNY   72  49  44 NW13      29.93R
$$

WIZ022-050-052-222300-
EAST CENTRAL WISCONSIN

CITY           SKY/WX    TMP DP  RH WIND       PRES   REMARKS
EPHRAIM        CLOUDY    70  48  46 NW7G18    29.85S
WASHINGTON ISL CLOUDY    67  50  55 NW7       29.84R
STURGEON BAY   PTSUNNY   71  50  47 NW16G24   29.87R
MANITOWOC      MOSUNNY   73  48  41 NW17      29.89S
SHEBOYGAN      PTSUNNY   71  51  49 NW12G23   29.91R
$$

LMZ563-521-522-541>543-222300-
LAKESHORE

STATION/POSITION TIME  TEMP    WIND        PRES    VSBY  WAVE
                       AIR SEA DIR/SP/G                  HT/PER
                 (UTC) (F)     (DEG/KT/KT) (MB)    (MI)  (FT/S)
SHEBOYGAN LKSHOR 2200   73     290/ 16/ 21 1012.1R
KEWAUNEE LKSHORE 2148   73     310/ 11/ 20 1010.7R
NORTHPORT PIER   2140   71     300/ 12/ 18 1010.2S
N MID LAKE BUOY  2150   69 67  280/ 17/ 21 1009.9R         3/ 5
S GREEN BAY BUOY 2200   72 71  290/ 16/ 19 1011.2
SISTER BAY LKSHO 2203   70     310/ 17/ 19   N/A
MENOMINEE LKSHOR 2148   71     320/ 12/ 19 1010.8R
$$




USA.gov is the U.S. government's official web portal to all federal, state and local government web resources and services.